Simultaneous Nadir Overpasses (SNOs) Predictions

Prediction of SNOs between GOES-15 and TERRA Satellite Orbit:

Table of predicted SNOs for the next 14.0 days since TLE Epoch: 7/27/2013
Index Date Time (GOES-15) GOES-15 Lat,Lon TERRA Lat,Lon Distance(km) Time Diff (sec)
1 07/27/2013 19:25:01 0.08,-135.38 -0.16,-134.08 147.26 80
2 07/28/2013 07:49:06 -0.11,-135.38 -0.92,-139.28 443.40 80
3 07/29/2013 19:12:52 0.08,-135.38 -0.84,-131.15 481.87 80
4 07/30/2013 07:36:56 -0.11,-135.37 -0.30,-136.33 108.95 80
5 08/01/2013 07:22:06 -0.11,-135.36 0.33,-133.38 224.93 80
6 08/01/2013 19:46:00 0.14,-135.36 0.82,-138.53 360.85 80
7 08/03/2013 19:33:51 0.13,-135.34 0.18,-135.58 27.51 80
8 08/05/2013 19:19:01 0.13,-135.31 -0.46,-132.63 305.32 80
9 08/06/2013 07:43:04
